Location: ?????
(31.7405°N, 35.1927°E)
Time: 14:46:00
(UTC+00:00)

SKYMED 2 - Pass Details

Date: 17 February 2020
Orbit: 621 x 623 km, 97.9° (Epoch: 08 April)

Event Time Altitude Azimuth Distance (km) Brightness Sun altitude
Rises 03:05:20 0° 171° (S) 2,886 7.2 -16.5°
Reaches altitude 10° 03:07:31 10° 172° (S) 1,984 6.3 -16.0°
Maximum altitude 03:11:50 76° 259° (WSW) 646 3.4 -15.1°
Drops below altitude 10° 03:16:11 10° 344° (NNW) 1,997 6.0 -14.2°
Sets 03:18:23 0° 346° (NNW) 2,908 6.8 -13.7°
